EHI
0 0 0 0 0 0 0 0 0 0 0 0 1 1 2 2 1 0 0 0 0 0 0 0 0 0 0 0 0 0 0 0 0 0 0 0 0 0 0 0 0 0 0 0
0 0 0 0 0 0 0 0 0 0 0 1 1 1 1 1 0 0 0 0 0 0 0 0 0 0 0 0 0 0 0 0 0 0 0 0 0 0 0 0 0 0 0 0
0 0 0 0 0 0 0 0 0 0 0 1 1 0 0 0 0 0 0 0 0 0 0 0 0 0 0 0 0 0 0 0 0 0 0 0 0 0 0 0 0 0 0 0
0 0 0 0 0 0 0 0 0 0 0 0 0 0 0 0 0 0 0 0 0 0 0 0 0 0 0 0 0 0 0 0 0 0 0 0 0 0 0 0 0 0 0 0
0 0 0 0 0 0 0 0 0 0 0 0 0 0 0 0 0 0 0 0 0 0 0 0 0 0 0 0 0 0 0 0 0 0 0 0 0 0 0 0 0 0 0 0
0 0 0 0 0 0 0 0 0 0 1 1 1 0 0 0 0 0 0 0 0 0 0 0 0 0 0 0 0 0 0 0 0 0 0 0 0 0 0 0 0 0 0 0
0 0 0 0 0 0 0 0 0 0 1 1 1 0 0 0 0 0 0 0 0 0 0 0 0 0 0 0 0 0 0 0 0 0 0 0 0 0 0 0 0 0 0 0
0 0 0 0 0 0 0 0 0 0 0 0 0 0 0 0 0 0 0 0 0 0 0 0 0 0 0 0 0 0 0 0 0 0 0 0 0 0 0 0 0 0 0 0
0 0 0 0 0 0 0 0 0 0 0 0 0 0 0 0 0 0 0 0 0 0 0 0 0 0 0 0 0 0 0 0 0 0 0 0 0 0 0 0 0 0 0 0
0 0 0 0 0 0 0 0 0 0 0 0 0 0 0 0 0 0 0 0 0 0 0 0 0 0 0 0 0 0 0 0 0 0 0 0 0 0 0 0 0 0 0 0
0 0 0 0 0 0 0 0 0 0 0 0 0 0 0 0 0 0 0 0 0 0 0 0 0 0 0 0 0 0 0 0 0 0 0 0 0 0 0 0 0 0 0 0
0 0 0 0 0 0 0 0 0 0 0 0 0 0 0 0 0 0 0 0 0 0 0 0 0 0 0 0 0 0 0 0 0 0 0 0 0 0 0 0 0 0 0 0
0 0 0 0 0 0 0 0 0 0 0 0 0 0 0 0 0 0 0 0 0 0 0 0 0 0 0 0 0 0 0 0 0 0 0 0 0 0 0 0 0 0 0 0
0 0 0 0 0 0 0 0 0 0 0 0 0 0 0 0 0 0 0 0 0 0 0 0 0 0 0 0 0 0 0 0 0 0 0 0 0 0 0 0 0 0 0 0
0 0 0 0 0 0 0 0 0 0 0 0 0 0 0 0 0 0 0 0 0 0 0 0 0 0 0 0 0 0 0 0 0 0 0 0 0 0 0 0 0 0 0 0
0 0 0 0 0 0 0 0 0 0 0 0 0 0 0 0 0 0 0 0 0 0 0 0 0 0 0 0 0 0 0 0 0 0 0 0 0 0 0 0 0 0 0 0
0 0 0 0 0 0 0 0 0 0 0 0 0 0 0 0 0 0 0 0 0 0 0 0 0 0 0 0 0 0 0 0 0 0 0 0 0 0 0 0 0 0 0 0
0 0 0 0 0 0 0 0 0 0 0 0 0 0 0 0 0 0 0 0 0 0 0 0 0 0 0 0 0 0 0 0 0 0 0 0 0 0 0 0 0 0 0 0
0 0 0 0 0 0 0 0 0 0 0 0 0 0 0 0 0 0 0 0 0 0 0 0 0 0 0 0 0 0 0 0 0 0 0 0 0 0 0 0 0 0 0 0
0 0 0 0 0 0 0 0 0 0 0 0 0 0 0 0 0 0 0 0 0 0 0 0 0 0 0 0 0 0 0 0 0 0 0 0 0 0 0 0 0 0 0 0
0 0 0 0 0 0 0 0 0 0 0 0 0 0 0 0 0 0 0 0 0 0 0 0 0 0 0 0 0 0 0 0 0 0 0 0 0 0 0 0 0 0 0 0
0 0 0 0 0 0 0 0 0 0 0 0 0 0 0 0 0 0 0 0 0 0 0 0 0 0 0 0 0 0 0 0 0 0 0 0 0 0 0 0 0 0 0 0
0 0 0 0 0 0 0 0 0 0 0 0 0 0 0 0 0 0 0 0 0 0 0 0 0 0 0 0 0 0 0 0 0 0 0 0 0 0 0 0 0 0 0 0
0 0 0 0 0 0 0 0 0 0 0 0 0 0 0 0 0 0 0 0 0 0 0 0 0 0 0 0 0 0 0 0 0 0 0 0 0 0 0 0 0 0 0 0
0 0 0 0 0 0 0 0 0 0 0 0 0 0 0 0 0 0 0 0 0 0 0 0 0 0 0 0 0 0 0 0 0 0 0 0 0 0 0 0 0 0 0 0
0 0 0 0 0 0 0 0 0 0 0 0 0 0 0 0 0 0 0 0 0 0 0 0 0 0 0 0 0 0 0 0 0 0 0 0 0 0 0 0 0 0 0 0
0 0 0 0 0 0 0 0 0 0 0 0 0 0 0 0 0 0 0 0 0 0 0 0 0 0 0 0 0 0 0 0 0 0 0 0 0 0 0 0 0 0 0 0
Wind_Speed
6 5 5 6 5 5 7 7 7 4 2 7 11 13 13 13 13 12 11 11 11 10 10 10 11 11 12 12 11 11 12 12 12 11 11 10 10 10 9 9 9 9 9 8
6 5 6 6 5 5 5 5 4 2 3 7 12 13 13 14 14 13 12 12 11 11 11 11 11 11 11 11 10 10 11 12 11 10 10 10 10 9 9 9 9 9 9 9
6 4 6 6 3 3 2 2 2 2 4 12 13 13 14 14 14 13 13 12 12 11 11 11 11 11 10 10 10 10 11 11 11 10 10 9 9 9 9 9 9 8 8 9
5 5 5 4 3 1 2 1 0 4 9 11 12 11 11 12 14 14 14 13 12 11 12 11 11 10 10 10 10 10 10 10 10 10 10 9 9 8 8 7 7 7 7 8
5 5 2 6 4 4 2 2 3 8 12 13 15 12 9 10 12 13 14 13 12 11 12 11 11 11 10 10 10 10 10 9 9 9 9 8 8 7 7 6 6 6 6 6
6 6 3 5 5 2 3 4 7 10 14 16 15 9 8 12 13 14 13 12 12 12 12 11 11 10 10 10 9 10 10 9 8 8 7 7 7 6 6 5 5 5 6 6
8 6 2 6 4 5 5 5 11 12 14 14 8 7 15 16 15 14 13 13 12 12 11 11 11 10 9 10 9 9 9 9 8 7 7 7 6 5 4 5 5 5 5 5
5 5 3 5 4 1 5 8 11 12 12 11 13 18 18 17 17 16 15 13 12 11 11 10 10 10 10 10 9 9 8 8 7 6 6 6 5 5 4 4 4 4 4 4
4 5 6 3 3 4 5 10 12 13 14 15 17 18 18 17 16 15 15 13 11 12 11 9 9 9 10 9 9 8 8 7 7 6 5 5 4 4 4 2 2 3 3 3
3 6 5 5 5 6 8 11 13 15 16 17 18 18 18 16 15 14 14 13 12 12 11 9 8 8 8 8 8 8 8 7 6 5 5 5 3 3 3 3 3 3 3 4
4 7 8 7 7 10 12 14 16 16 16 17 19 19 18 15 15 13 12 12 11 11 10 10 9 9 9 8 7 7 7 6 5 5 5 4 5 6 6 8 8 6 5 4
2 9 7 10 10 13 15 16 17 17 17 17 17 18 17 15 13 13 12 11 11 11 11 11 10 9 8 8 7 6 6 5 4 4 4 4 5 6 7 7 5 5 6 6
8 11 13 14 14 14 15 16 16 17 17 17 16 17 16 15 13 13 13 12 12 12 11 11 10 9 8 7 6 5 5 4 3 3 3 3 3 4 6 5 3 1 1 2
16 17 17 15 15 15 17 17 17 17 17 16 15 16 15 15 14 13 13 12 12 12 11 11 10 9 8 7 6 5 5 5 2 3 2 2 2 2 3 4 6 6 5 3
14 12 16 17 17 17 17 17 18 17 16 16 15 15 16 15 15 13 13 12 11 11 11 10 10 9 8 7 6 6 4 4 3 2 2 2 2 2 2 3 3 3 5 7
15 18 19 19 19 18 18 19 18 17 17 16 16 15 15 15 14 13 13 12 11 11 10 10 9 9 8 7 6 5 4 4 0 2 2 3 2 2 2 2 2 2 2 3
21 21 20 20 19 19 18 17 17 17 17 16 16 16 15 15 14 13 12 11 10 10 10 9 9 8 8 7 6 5 5 6 5 3 2 2 2 2 2 2 2 2 4 6
17 19 19 20 19 18 18 18 17 17 17 17 17 16 15 15 14 13 12 11 10 10 9 9 8 7 7 7 4 3 4 5 4 3 3 3 2 3 3 3 3 2 3 5
18 19 19 19 18 18 17 17 18 17 17 16 16 16 15 14 13 13 12 11 11 10 9 8 5 6 7 5 3 4 4 4 4 3 4 4 3 3 3 2 2 2 1 1
19 19 20 19 19 18 18 17 17 17 16 16 16 15 14 14 13 13 11 10 8 8 10 9 9 7 7 6 5 4 4 4 4 5 4 4 4 3 3 2 2 2 1 1
20 20 20 19 19 18 18 18 17 17 16 16 15 15 14 14 13 12 11 9 8 8 9 8 7 7 6 6 7 4 5 4 4 4 4 4 3 3 3 2 2 1 1 0
19 19 20 19 18 17 17 16 17 17 16 15 15 15 14 14 13 11 9 7 10 8 8 9 8 6 5 5 6 4 4 5 4 4 4 4 4 4 3 3 2 2 1 1
18 18 19 19 18 18 17 16 17 16 16 16 15 15 14 12 10 10 9 7 9 9 8 7 8 10 6 8 5 4 5 5 4 4 5 5 4 4 4 4 3 2 2 1
18 18 18 18 18 18 18 17 16 14 15 15 14 14 13 11 9 8 7 9 9 10 8 8 11 10 9 7 5 5 5 5 5 5 5 5 5 5 4 4 3 3 3 3
18 18 18 19 18 15 16 17 16 16 16 12 14 15 12 9 9 8 8 11 12 10 9 10 11 10 10 8 6 6 5 5 4 4 5 4 5 5 4 4 4 4 4 3
17 15 15 15 13 13 14 14 13 13 13 12 12 12 11 9 10 9 8 11 14 10 9 9 11 11 10 9 7 7 5 5 6 6 6 5 6 5 5 5 6 5 4 4
16 14 13 13 13 13 13 13 13 13 13 13 13 12 12 11 10 10 11 10 11 11 9 9 10 10 10 9 8 7 6 6 6 7 6 6 6 6 6 7 6 5 5 5
Wind_Direction
278 283 268 271 274 263 259 272 279 295 151 157 152 145 140 137 135 131 126 121 115 110 107 103 99 97 97 97 99 101 102 100 99 100 100 98 96 93 91 89 89 88 89 87
256 237 241 251 257 262 269 268 251 205 124 129 135 136 141 144 142 138 135 129 123 118 115 111 108 106 105 105 108 109 107 105 105 105 103 101 100 97 94 89 86 85 83 81
261 241 246 246 231 226 227 249 245 250 135 138 143 151 153 151 147 144 140 136 133 129 123 119 117 118 118 120 121 118 114 113 114 113 107 104 101 97 94 92 89 86 84 82
268 251 249 86 95 164 156 138 28 108 133 146 140 135 138 145 143 142 141 140 136 132 127 126 129 128 125 125 123 119 116 114 113 110 107 105 102 99 99 96 94 91 86 84
265 262 254 137 155 174 191 130 131 131 129 125 123 113 116 133 139 141 141 138 134 133 132 134 135 134 131 128 124 120 117 116 114 113 112 110 105 103 101 101 100 99 90 85
265 285 308 99 126 162 215 155 144 145 144 145 151 149 143 141 136 133 133 132 133 136 137 139 139 138 134 128 123 117 113 111 110 109 106 102 100 101 101 101 101 97 88 80
267 275 61 85 127 198 252 97 145 154 155 161 167 118 130 137 134 133 132 134 139 142 141 140 141 139 133 125 117 114 114 112 108 105 102 98 97 98 105 101 93 87 92 93
264 271 92 95 167 278 58 114 142 146 148 134 112 115 128 134 135 138 138 141 145 141 138 140 144 142 132 122 119 119 117 113 109 103 97 98 99 97 91 97 120 115 107 109
358 42 75 78 64 72 118 133 137 138 134 127 127 130 132 135 137 141 143 144 144 140 138 141 146 141 129 127 129 127 122 115 111 102 88 89 100 110 114 120 101 97 98 98
134 106 105 102 104 112 121 126 130 132 133 134 132 133 134 135 139 142 144 144 145 144 141 138 138 130 127 133 135 133 129 123 116 110 107 97 88 84 76 65 69 80 75 75
135 127 129 116 115 118 118 120 123 127 131 133 134 136 136 138 141 143 145 148 149 145 142 140 137 134 135 139 142 140 136 129 121 111 99 101 78 47 41 54 34 15 38 44
140 154 145 129 130 129 128 128 128 128 129 133 136 137 138 138 141 143 145 147 147 145 143 141 140 139 139 143 145 145 144 143 135 124 121 125 128 118 62 58 74 51 27 5
109 124 116 125 129 129 127 127 128 129 131 133 135 137 138 139 142 144 146 148 146 146 143 141 140 140 142 142 143 148 141 138 136 132 136 133 131 131 135 133 133 113 62 15
119 119 123 129 128 127 126 125 125 126 129 131 134 136 137 138 141 142 142 142 141 142 143 144 144 145 147 149 153 154 153 144 164 147 136 132 127 121 127 140 151 151 148 133
138 132 130 129 127 128 129 130 129 130 132 134 137 139 141 141 141 140 139 139 140 142 144 147 147 146 150 155 157 159 163 148 154 142 149 135 131 121 109 112 114 121 134 144
131 127 132 135 136 138 140 140 137 138 140 141 142 142 142 141 139 140 143 146 149 149 148 148 148 149 152 151 153 157 132 81 224 178 149 139 141 130 124 125 120 112 106 90
142 145 146 145 146 147 146 145 142 143 143 144 143 142 142 141 142 144 148 150 146 142 145 147 149 151 155 159 176 169 149 143 187 208 153 139 139 133 131 133 124 118 92 68
151 149 150 149 149 148 146 145 144 145 145 144 143 145 147 148 147 146 146 144 143 143 145 148 149 155 154 159 177 166 151 158 169 149 138 130 129 141 142 132 128 128 128 137
146 146 147 148 147 146 146 146 146 145 144 146 148 149 150 149 148 147 149 152 154 153 152 142 138 172 155 142 183 177 161 155 148 142 133 135 181 151 144 142 140 139 116 95
145 146 146 147 148 148 147 146 145 146 149 150 150 150 152 151 152 154 159 164 164 151 150 152 171 170 161 160 237 186 155 160 151 148 153 162 157 155 159 149 138 129 125 71
148 149 150 150 150 150 149 149 149 151 153 155 155 155 154 155 158 161 170 164 152 150 151 157 183 174 175 159 218 204 162 160 163 165 165 164 162 165 162 159 159 161 172 165
152 153 153 151 151 150 151 153 154 154 155 158 159 158 157 160 165 169 178 159 152 157 175 179 186 151 146 191 206 190 168 165 171 169 176 177 178 180 176 182 185 186 198 208
154 155 154 154 154 152 154 157 158 159 161 164 164 164 166 168 171 174 171 163 161 173 200 179 139 136 166 221 210 186 173 175 181 180 183 188 189 190 192 200 204 208 223 235
154 155 155 154 153 155 159 161 160 162 165 166 167 169 170 171 177 183 161 152 154 168 194 139 142 164 206 226 207 195 183 186 194 196 193 195 196 197 197 207 216 220 223 234
156 156 156 158 160 162 162 161 162 166 169 170 170 173 178 181 178 175 164 162 162 182 186 155 169 185 214 220 208 204 201 195 198 205 198 205 212 210 209 215 224 231 234 235
158 160 161 166 164 162 163 165 168 170 173 172 172 175 179 180 180 170 173 176 175 195 202 172 177 195 216 216 208 209 207 183 193 218 221 218 223 227 226 229 231 237 239 238
160 158 161 167 168 169 169 171 173 174 177 176 174 176 179 180 181 180 183 182 179 191 201 191 187 196 208 211 207 205 210 212 213 217 219 222 227 229 228 228 235 235 236 235